Flag for Greenland Weather past 2 weeks in Nuuk, Greenland

Now
10 °F

Passing clouds.


Feels Like: -6 °F
Forecast: N/A
Wind: 15 mph from Northeast

Location: Godthaab / Nuuk

Current Time: Dec 21, 2014 at 6:11:58 PM

Latest Report: Dec 21, 2014 at 5:50 PM


Visibility: N/A

Pressure: 29.83 "Hg

Humidity: 72%

Dew point: 3 °F

Location of NuukLocation

Historic Weather in Nuuk — Graph

°F

Nuuk temperature yesterday

Maximum temperature yesterday: 12 °F (at 12:50 AM)
Minimum temperature yesterday: 9 °F (at 5:50 AM)
Average temperature yesterday: 10 °F

Past Weeks' High & Low Weather Summary

 TemperatureHumidityPressure
High32 °F (Dec 15, 8:50 AM)100% (Dec 15, 7:50 AM)30.45 "Hg (Dec 15, 7:50 AM)
Low9 °F (Dec 17, 2:50 AM)41% (Dec 11, 3:50 AM)28.85 "Hg (Dec 8, 11:50 AM)
Average16 °F70%29.61 "Hg
* Reported Dec 6 4:50 PM — Dec 21 4:50 PM, Nuuk, Weather by CustomWeather, © 2014

Note: Actual official high and low records may vary slightly from our data, if they occured in-between our weather recording intervals... More about our weather records

Advertising

Nuuk weather history for previous 24 hours

 ConditionsComfort  
Time TempWeatherWind HumidityBarometerVisibility
4:50 PM
Dec 21
12 °FPassing clouds.15 mph73%29.83 "HgN/A
3:50 PM12 °FPassing clouds.15 mph73%29.83 "HgN/A
1:50 PM10 °FPassing clouds.16 mph72%29.80 "HgN/A
12:50 PM10 °FPassing clouds.12 mph67%29.83 "HgN/A
11:50 AM10 °FScattered clouds.18 mph67%29.83 "HgN/A
10:50 AM10 °FScattered clouds.17 mph67%29.83 "HgN/A
9:50 AM10 °FPassing clouds.15 mph67%29.83 "HgN/A
8:50 AM10 °FPassing clouds.12 mph67%29.83 "HgN/A
7:50 AM12 °FPassing clouds.10 mph67%29.83 "HgN/A
6:50 AM12 °FOvercast.14 mph67%29.80 "HgN/A
5:50 AM12 °FOvercast.13 mph67%29.80 "HgN/A
4:50 AM12 °FOvercast.12 mph67%29.80 "HgN/A
3:50 AM12 °FOvercast.13 mph67%29.80 "HgN/A
2:50 AM12 °FSnow flurries. Overcast.13 mph73%29.80 "HgN/A
1:50 AM12 °FSnow flurries. Overcast.10 mph67%29.77 "Hg4 mi
12:50 AM12 °FSnow flurries. Overcast.10 mph67%29.77 "Hg6 mi
11:50 PM
Dec 20
12 °FSnow flurries. Overcast.13 mph67%29.77 "Hg5 mi
10:50 PM12 °FSnow flurries. Overcast.13 mph67%29.74 "HgN/A
9:50 PM10 °FOvercast.15 mph67%29.74 "HgN/A
8:50 PM10 °FPassing clouds.17 mph67%29.71 "HgN/A
7:50 PM9 °FPassing clouds.15 mph66%29.71 "HgN/A
6:50 PM9 °FPassing clouds.17 mph78%29.68 "HgN/A
Weather by CustomWeather, © 2014

See weather overviewHow to use our weather pages